Total_Precipitation_Accumulation
3.01 3.02 2.97 2.97 2.88 3.01 3.15 3.23 3.11 3.02 2.94 2.77 2.56 2.55 2.73 2.80 2.88 2.90 3.00 3.10 2.88 3.06 3.59 4.00 4.08 4.10 4.05 4.01 3.95 3.90 3.76 3.79 3.64 3.25 2.78 2.49 2.37 2.19 2.14 2.13 2.19 2.21 2.19
3.38 3.39 3.45 3.40 3.15 3.19 3.34 3.47 3.36 3.26 3.02 2.88 2.70 2.68 2.74 2.67 2.77 2.95 3.04 3.12 3.00 2.95 3.38 3.94 4.34 4.53 4.50 4.47 4.33 4.08 3.85 3.71 3.65 3.52 3.22 2.83 2.61 2.42 2.29 2.16 2.13 2.11 2.05
3.74 3.78 3.91 3.89 3.57 3.54 3.66 3.76 3.74 3.63 3.24 2.95 2.89 2.95 2.94 2.93 2.78 2.78 3.02 3.12 3.01 3.05 3.30 3.51 3.85 4.15 4.35 4.44 4.50 4.34 4.11 3.81 3.62 3.53 3.50 3.26 2.92 2.65 2.46 2.32 2.26 2.17 2.03
3.81 4.00 3.91 3.74 3.71 3.84 4.09 4.27 4.16 4.09 3.86 3.63 3.46 3.18 2.96 2.91 2.81 2.92 2.92 2.97 3.27 3.18 3.21 3.11 3.30 3.65 3.96 4.29 4.54 4.63 4.47 4.17 3.83 3.59 3.52 3.40 3.11 2.76 2.50 2.36 2.32 2.25 2.14
3.91 4.18 4.21 4.17 4.08 4.14 4.27 4.10 4.24 4.17 4.31 4.13 3.67 3.39 3.12 2.96 2.90 2.90 2.94 2.91 3.04 3.20 3.19 3.01 3.09 3.36 3.63 4.02 4.27 4.55 4.69 4.54 4.23 3.87 3.68 3.59 3.34 3.04 2.74 2.53 2.39 2.31 2.22
4.26 4.46 4.40 4.44 4.48 4.58 4.49 4.44 4.49 4.29 4.19 4.14 3.75 3.52 3.27 2.97 2.93 2.84 2.71 2.77 2.85 2.74 2.83 2.87 2.98 2.92 3.21 3.57 3.88 4.28 4.75 4.87 4.76 4.40 4.12 4.00 3.70 3.29 2.93 2.73 2.59 2.49 2.39
4.85 4.94 4.95 4.91 4.74 4.66 4.56 4.48 4.49 4.41 4.11 3.97 4.01 3.64 3.13 2.70 2.48 2.39 2.41 2.51 2.52 2.46 2.56 2.80 2.99 2.92 2.83 3.02 3.37 3.93 4.66 5.00 5.06 4.85 4.52 4.32 3.94 3.48 3.16 2.94 2.75 2.58 2.45
5.59 5.44 5.42 5.08 4.76 4.64 4.52 4.41 4.35 4.22 3.87 3.75 3.83 3.85 3.32 2.84 2.28 1.99 2.07 2.10 2.19 2.34 2.40 2.34 2.54 2.65 2.57 2.66 2.62 3.03 3.53 4.07 4.54 4.75 4.65 4.38 4.06 3.68 3.36 3.14 3.05 2.96 2.80
5.67 5.46 5.21 5.01 4.80 4.62 4.45 4.44 4.35 4.23 3.93 3.73 3.71 3.96 3.72 3.18 2.57 2.21 1.98 2.02 2.14 2.26 2.23 2.18 2.20 2.26 2.31 2.43 2.44 2.61 2.86 3.17 3.70 4.13 4.32 4.21 3.94 3.64 3.44 3.35 3.31 3.37 3.34
5.27 4.91 4.73 4.77 4.64 4.43 4.23 3.94 3.82 3.83 3.80 3.63 3.56 3.44 3.34 3.18 2.95 2.62 2.29 2.24 2.29 2.27 2.19 2.16 2.21 2.31 2.36 2.48 2.49 2.37 2.38 2.50 2.88 3.35 3.79 3.88 3.74 3.53 3.44 3.51 3.57 3.70 3.75
4.62 4.38 4.31 4.41 4.31 4.06 3.87 3.62 3.43 3.27 3.28 3.36 3.39 3.30 3.14 2.99 2.75 2.60 2.43 2.31 2.28 2.20 2.13 2.10 2.16 2.26 2.34 2.34 2.29 2.19 2.22 2.23 2.40 2.65 3.04 3.44 3.61 3.65 3.63 3.67 3.73 3.76 3.83
4.07 3.77 3.57 3.48 3.39 3.23 3.12 3.10 3.06 3.02 3.01 3.08 3.11 3.07 2.96 2.86 2.76 2.72 2.55 2.32 2.27 2.29 2.19 2.06 1.96 1.98 2.04 2.15 2.12 2.25 2.13 2.13 2.20 2.28 2.35 2.60 2.94 3.22 3.42 3.56 3.57 3.70 3.82
3.42 3.08 2.89 2.76 2.72 2.68 2.62 2.67 2.73 2.76 2.73 2.80 2.78 2.75 2.70 2.55 2.51 2.65 2.74 2.57 2.39 2.24 2.22 2.12 1.97 2.00 1.91 2.00 2.21 2.27 2.10 2.01 2.06 2.06 1.98 2.01 2.25 2.58 2.70 2.92 3.15 3.32 3.55
2.76 2.65 2.55 2.39 2.34 2.37 2.36 2.50 2.48 2.40 2.41 2.45 2.38 2.44 2.44 2.38 2.41 2.51 2.63 2.80 2.76 2.48 2.28 2.16 2.05 2.02 2.02 2.03 2.19 2.22 1.96 1.83 1.79 1.86 1.88 1.85 1.88 2.03 2.17 2.24 2.42 2.59 2.79
2.27 2.24 2.21 2.13 2.03 1.98 1.97 2.00 1.98 2.01 2.09 2.06 2.05 2.07 2.08 2.15 2.26 2.32 2.42 2.67 2.90 2.79 2.49 2.25 2.20 2.12 2.06 2.11 2.30 2.02 1.89 1.84 1.68 1.60 1.59 1.58 1.63 1.72 1.83 1.82 1.83 1.93 2.02
1.95 1.93 1.86 1.79 1.80 1.81 1.75 1.67 1.64 1.68 1.75 1.82 1.88 1.88 1.86 1.89 2.01 2.02 2.09 2.25 2.54 2.76 2.56 2.13 2.06 2.02 2.05 1.93 2.17 1.93 1.89 1.89 1.60 1.42 1.36 1.37 1.41 1.47 1.53 1.56 1.59 1.62 1.70
1.78 1.72 1.71 1.68 1.58 1.54 1.56 1.59 1.56 1.60 1.72 1.74 1.70 1.73 1.75 1.82 1.92 1.89 1.92 2.02 2.19 2.42 2.58 2.31 2.14 2.07 2.05 2.09 2.09 1.93 1.80 1.70 1.55 1.46 1.27 1.21 1.23 1.32 1.33 1.34 1.42 1.48 1.50
1.68 1.68 1.66 1.60 1.42 1.35 1.48 1.55 1.51 1.50 1.63 1.64 1.60 1.66 1.67 1.71 1.79 1.83 1.92 2.02 2.14 2.31 2.43 2.48 2.32 2.17 2.09 2.07 2.10 2.05 1.78 1.60 1.52 1.55 1.34 1.21 1.13 1.12 1.20 1.20 1.23 1.33 1.42
1.54 1.55 1.46 1.44 1.36 1.30 1.35 1.38 1.38 1.36 1.41 1.49 1.50 1.56 1.61 1.71 1.70 1.74 1.80 1.87 1.99 2.08 2.27 2.37 2.27 2.17 2.10 2.00 2.15 2.01 1.88 1.99 1.63 1.50 1.37 1.25 1.15 1.10 1.31 1.34 1.14 1.14 1.21
1.41 1.41 1.35 1.30 1.28 1.25 1.14 1.10 1.13 1.20 1.30 1.30 1.28 1.39 1.47 1.54 1.56 1.65 1.66 1.74 1.83 2.02 2.20 2.27 2.14 2.01 1.96 1.99 2.12 2.10 2.01 1.95 1.78 1.43 1.41 1.32 1.22 1.21 1.50 2.01 1.51 1.22 1.19
1.19 1.21 1.20 1.17 1.17 1.09 0.97 0.99 1.04 1.04 1.15 1.18 1.17 1.22 1.27 1.32 1.33 1.36 1.33 1.50 1.69 1.87 2.00 2.09 2.03 1.98 1.93 2.06 2.05 1.97 1.94 1.92 1.76 1.55 1.53 1.41 1.51 1.74 2.22 2.83 2.35 1.73 1.50
1.27 1.22 1.20 1.15 1.08 0.93 0.92 0.90 0.90 0.95 1.04 1.13 1.22 1.21 1.11 1.10 1.07 1.01 1.05 1.17 1.39 1.64 1.90 2.02 1.97 1.96 1.94 2.02 2.12 2.08 2.04 2.11 2.05 1.69 1.62 1.54 1.73 2.49 3.11 3.38 2.91 2.08 1.76
1.42 1.32 1.20 1.15 1.08 0.99 0.90 0.76 0.74 0.79 0.98 1.12 1.20 1.19 1.00 0.92 1.03 1.02 1.06 1.06 1.14 1.29 1.57 1.87 1.96 1.87 1.91 2.04 2.24 2.28 2.22 2.20 2.15 1.88 1.89 1.83 1.98 2.77 2.98 3.11 2.95 2.16 1.83
1.42 1.34 1.22 1.16 1.10 0.92 0.81 0.71 0.71 0.75 0.89 0.92 0.95 1.04 1.11 1.11 1.03 1.06 1.07 1.18 1.24 1.34 1.42 1.56 1.78 1.76 1.74 1.93 2.14 2.17 2.14 2.10 2.04 1.91 1.94 2.04 2.16 2.64 2.58 2.65 2.69 2.16 1.85
1.36 1.24 1.16 1.12 1.07 0.91 0.83 0.80 0.80 0.81 0.86 0.81 0.79 0.85 0.91 0.95 0.94 1.00 1.10 1.29 1.37 1.48 1.45 1.61 1.62 1.55 1.57 1.64 1.66 1.80 2.09 2.29 2.19 1.90 1.77 1.91 2.06 2.34 2.40 2.43 2.28 2.08 1.88
1.30 1.12 1.06 1.07 1.02 0.97 0.86 0.72 0.70 0.70 0.82 0.83 0.86 0.91 0.86 0.75 0.80 0.90 1.11 1.37 1.56 1.61 1.65 1.76 1.72 1.70 1.60 1.57 1.52 1.60 1.99 2.29 2.28 2.06 1.74 1.77 1.89 2.10 2.34 2.27 2.05 1.89 1.91